[[{"header":{"parameterUnit":"m.s-1","parameterCategory":1,"la1":30.2991,"la2":30.254,"lo1":-89.0895,"lo2":-89.0444,"dy":0.0017,"dx":0.0017,"nx":28,"ny":28,"refTime":"2025-05-01T03:00:00:Z","depth":0,"parameterNumber":2,"parameterNumberName":"U-component_of_WINDS"},"data":[0,0,0,0,0,0,0,0,0,0,0,0,0,0,0,0,0,0,0,0,0,0,0,0,0,0,0,0,0,0,0,0,0,0,0,0,0,0,0,0,0,0,0,0,0,0,0,0,0,0,0,0,0,0,0,0,0,0,-1.8085,-1.8087,0,-1.826,-1.8262,-1.8264,-1.8372,-1.8373,-1.8373,-1.8374,-1.856,-1.8565,-1.8569,0,0,0,0,0,0,0,0,0,0,0,0,0,-1.7851,-1.7855,-1.8085,-1.8087,-1.8089,-1.826,-1.8262,-1.8265,-1.8372,-1.8373,-1.8373,-1.8374,-1.8559,-1.8564,-1.857,0,0,0,0,0,0,0,0,0,0,0,0,0,-1.7982,-1.7856,-1.8084,-1.8163,-1.8172,-1.8259,-1.8262,-1.8265,-1.8372,-1.8373,-1.8374,-1.8374,-1.8557,-1.8564,-1.857,-1.8595,0,0,-1.8591,-1.8594,0,0,0,0,0,0,0,0,-1.7974,-1.7991,-1.8149,-1.8158,-1.8168,-1.8295,-1.8248,-1.8376,-1.8372,-1.8296,-1.8374,-1.8375,-1.8472,-1.8486,-1.8517,-1.8604,-1.8612,-1.8591,-1.8595,-1.8598,-1.86,0,0,0,0,0,0,0,-1.7965,-1.7984,-1.8155,-1.8152,-1.8163,-1.8192,-1.8212,-1.8273,-1.8378,-1.8303,-1.8311,-1.833,-1.8477,-1.851,-1.8522,-1.8615,-1.8591,-1.8597,-1.8601,-1.8604,-1.8732,-1.8732,0,0,0,0,0,0,-1.7943,-1.7975,-1.8149,-1.816,-1.8071,-1.8196,-1.8218,-1.8254,-1.8377,-1.8397,-1.8329,-1.8334,-1.8498,-1.8514,-1.8529,-1.8567,-1.8598,-1.8605,-1.8608,-1.8733,-1.8732,-1.8731,0,0,0,0,0,0,-1.7937,-1.7957,-1.8142,-1.807,-1.8096,-1.8199,-1.8238,-1.8257,-1.829,-1.8397,-1.8417,-1.8343,-1.85,-1.852,-1.8578,-1.8575,-1.8608,-1.8614,-1.8733,-1.8732,-1.8732,-1.8641,0,0,0,0,0,0,-1.793,-1.7954,-1.7963,-1.8069,-1.8099,-1.8185,-1.8238,-1.8259,-1.83,-1.8309,-1.8415,-1.8434,-1.8502,-1.8567,-1.8584,-1.8584,-1.8619,-1.8734,-1.8733,-1.8732,-1.8645,-1.8637,-1.863,0,0,0,0,0,-1.7921,-1.7932,-1.7963,-1.7983,-1.8111,-1.8184,-1.8202,-1.8278,-1.8299,-1.831,-1.8379,-1.8431,-1.8572,-1.8572,-1.8592,-1.8594,-1.8735,-1.8733,-1.8732,-1.8648,-1.8638,-1.8631,0,0,0,0,0,0,-1.7826,-1.7947,-1.7983,-1.8028,-1.8094,-1.8202,-1.8218,-1.8265,-1.8329,-1.8335,-1.8429,-1.8452,-1.8501,-1.8554,-1.8552,-1.8626,-1.866,-1.8662,-1.8588,-1.8581,-1.8573,-1.8559,-1.8624,0,0,0,0,0,-1.7809,-1.7856,-1.7961,-1.7991,-1.8022,-1.8114,-1.8149,-1.8201,-1.8275,-1.8305,-1.8378,-1.845,-1.8511,-1.8549,-1.8611,-1.8653,-1.8679,-1.8665,-1.8658,-1.8651,-1.8652,-1.8679,-1.8674,-1.8727,-1.8727,-1.8727,0,0,-1.7777,-1.7849,-1.7873,-1.7973,-1.8031,-1.8079,-1.8137,-1.8186,-1.8223,-1.8313,-1.8371,-1.8427,-1.8514,-1.8564,-1.859,-1.861,-1.8643,-1.8649,-1.8644,-1.8648,-1.8677,-1.8672,-1.8667,-1.8726,-1.8726,-1.8726,0,0,-1.7742,-1.7801,-1.7832,-1.7888,-1.7974,-1.8036,-1.8043,-1.8144,-1.8184,-1.8243,-1.8312,-1.8359,-1.8462,-1.852,-1.8564,-1.8551,-1.8601,-1.8569,-1.8532,-1.8557,-1.8553,-1.8549,-1.8545,-1.8542,-1.857,-1.857,-1.857,0,-1.7692,-1.7764,-1.7843,-1.7887,-1.7929,-1.801,-1.8044,-1.8096,-1.8198,-1.8227,-1.8248,-1.8378,-1.8442,-1.8507,-1.8503,-1.8536,-1.8549,-1.8557,-1.8546,-1.8544,-1.8542,-1.8539,-1.8537,-1.8565,-1.8566,-1.8566,-1.8567,0,-1.7698,-1.7748,-1.7763,-1.7857,-1.7901,-1.794,-1.8026,-1.8063,-1.8111,-1.8171,-1.8231,-1.8311,-1.839,-1.841,-1.846,-1.8482,-1.8492,-1.8528,-1.8564,-1.8531,-1.853,-1.8529,-1.8559,-1.856,-1.8562,-1.8563,0,0,-1.7607,-1.7744,-1.7748,-1.7791,-1.7893,-1.7934,-1.7977,-1.8052,-1.8081,-1.815,-1.8189,-1.8274,-1.8308,-1.8357,-1.8414,-1.8436,-1.8421,-1.8471,-1.8474,-1.8458,-1.8452,-1.8423,-1.842,-1.8455,-1.8455,-1.8455,-1.8444,0,-1.7587,-1.7665,-1.7737,-1.779,-1.7838,-1.7916,-1.7954,-1.8021,-1.8078,-1.8129,-1.8194,-1.8252,-1.8292,-1.8322,-1.8348,-1.8417,-1.8421,-1.8419,-1.8494,-1.8496,-1.8469,-1.842,-1.839,-1.8375,-1.8444,-1.8444,-1.8444,0,-1.7574,-1.7636,-1.7692,-1.7788,-1.7811,-1.7843,-1.7918,-1.7965,-1.8044,-1.8084,-1.8138,-1.8198,-1.8249,-1.828,-1.8353,-1.835,-1.8386,-1.8425,-1.8426,-1.8435,-1.8467,-1.8427,-1.8372,-1.837,-1.8444,-1.8444,-1.8444,0,-1.7501,-1.76,-1.7646,-1.7681,-1.7795,-1.7816,-1.7864,-1.7944,-1.7984,-1.8051,-1.8079,-1.8151,-1.8191,-1.8246,-1.8325,-1.834,-1.839,-1.8427,-1.8426,-1.8423,-1.8432,-1.843,-1.8381,-1.8455,-1.8455,-1.8455,-1.8455,0,-1.7471,-1.7502,-1.7615,-1.7643,-1.7682,-1.7766,-1.7802,-1.7859,-1.7928,-1.7971,-1.8045,-1.8084,-1.8185,-1.8237,-1.8299,-1.835,-1.8368,-1.8403,-1.8419,-1.8396,-1.8391,-1.8419,-1.8422,-1.8455,-1.8455,-1.8455,-1.8455,0,-1.7396,-1.7472,-1.7528,-1.763,-1.7657,-1.768,-1.7769,-1.7801,-1.7863,-1.7916,-1.7933,-1.803,-1.8095,-1.8178,-1.827,-1.8312,-1.8356,-1.8381,-1.8328,-1.8337,-1.8331,-1.833,-1.8298,-1.8298,-1.8372,-1.8371,-1.837,0,-1.737,-1.7396,-1.75,-1.7533,-1.7578,-1.763,-1.7671,-1.7756,-1.7796,-1.7888,-1.7909,-1.7979,-1.8039,-1.8139,-1.8219,-1.829,-1.8317,-1.8301,-1.8329,-1.8304,-1.8317,-1.8314,-1.8317,-1.8294,-1.8293,-1.8292,-1.8291,0,-1.7318,-1.7354,-1.7409,-1.7477,-1.7524,-1.7582,-1.7645,-1.7668,-1.7766,-1.7808,-1.7873,-1.792,-1.8012,-1.8081,-1.8162,-1.8216,-1.827,-1.8282,-1.8285,-1.8262,-1.8229,-1.8246,-1.8309,-1.8282,-1.8283,-1.8284,-1.8284,-1.8284,-1.7267,-1.7294,-1.737,-1.743,-1.7485,-1.7541,-1.7575,-1.764,-1.7695,-1.7775,-1.7823,-1.7887,-1.7967,-1.8081,-1.8132,-1.8185,-1.8206,-1.821,-1.8212,-1.8211,-1.8204,-1.8221,-1.82,-1.8201,-1.8201,-1.8201,-1.8202,0,-1.7218,-1.7271,-1.7324,-1.7407,-1.7454,-1.7499,-1.757,-1.7607,-1.7661,-1.773,-1.7787,-1.7863,-1.793,-1.8015,-1.8088,-1.8114,-1.8141,-1.8131,-1.813,-1.8141,-1.8181,-1.817,-1.8108,-1.8108,-1.8108,-1.8108,-1.8108,-1.8108,-1.7198,-1.7244,-1.729,-1.7365,-1.742,-1.748,-1.7517,-1.757,-1.7625,-1.7705,-1.776,-1.7814,-1.789,-1.797,-1.8034,-1.8058,-1.8081,-1.8063,-1.8094,-1.813,-1.8138,-1.8146,-1.8137,-1.8068,-1.8068,-1.805,-1.8049,-1.8049]},{"header":{"parameterUnit":"m.s-1","parameterCategory":1,"la1":30.2991,"la2":30.254,"lo1":-89.0895,"lo2":-89.0444,"dy":0.0017,"dx":0.0017,"nx":28,"ny":28,"refTime":"2025-05-01T03:00:00:Z","depth":0,"parameterNumber":3,"parameterNumberName":"V-component_of_WINDS"},"data":[0,0,0,0,0,0,0,0,0,0,0,0,0,0,0,0,0,0,0,0,0,0,0,0,0,0,0,0,0,0,0,0,0,0,0,0,0,0,0,0,0,0,0,0,0,0,0,0,0,0,0,0,0,0,0,0,0,0,6.1834,6.1835,0,6.1941,6.1942,6.1943,6.189,6.1887,6.1884,6.1881,6.1986,6.1992,6.1997,0,0,0,0,0,0,0,0,0,0,0,0,0,6.1577,6.1582,6.1834,6.1835,6.1837,6.1941,6.1942,6.1944,6.189,6.1887,6.1883,6.188,6.1985,6.1991,6.1997,0,0,0,0,0,0,0,0,0,0,0,0,0,6.1686,6.1583,6.1834,6.1822,6.1822,6.1941,6.1942,6.1944,6.1891,6.1887,6.1882,6.1878,6.1982,6.199,6.1998,6.2132,0,0,6.2023,6.2027,0,0,0,0,0,0,0,0,6.168,6.1696,6.1823,6.1823,6.1824,6.1898,6.189,6.2007,6.1892,6.1865,6.1881,6.1876,6.196,6.197,6.1999,6.2137,6.2141,6.2024,6.2029,6.2032,6.2034,0,0,0,0,0,0,0,6.1673,6.1691,6.1876,6.1825,6.1825,6.181,6.1821,6.1912,6.1934,6.1867,6.1863,6.1877,6.1959,6.1991,6.2001,6.2143,6.2024,6.2031,6.2036,6.2039,6.2393,6.2398,0,0,0,0,0,0,6.1666,6.1685,6.1873,6.1879,6.174,6.1818,6.183,6.1878,6.1933,6.1938,6.188,6.1874,6.1979,6.1991,6.2004,6.2163,6.2032,6.204,6.2044,6.2389,6.2394,6.2399,0,0,0,0,0,0,6.1661,6.1684,6.1868,6.1781,6.1804,6.1827,6.1881,6.1882,6.1914,6.1944,6.1947,6.1909,6.1976,6.1993,6.21,6.2166,6.2043,6.2051,6.2383,6.239,6.2397,6.2482,0,0,0,0,0,0,6.1654,6.1682,6.1735,6.1783,6.1809,6.1965,6.1885,6.1888,6.1929,6.1922,6.1971,6.1975,6.1974,6.2089,6.2108,6.2175,6.2057,6.2378,6.2386,6.2395,6.2473,6.2491,6.2506,0,0,0,0,0,6.1645,6.1754,6.1738,6.1761,6.1875,6.1969,6.1983,6.1981,6.1934,6.1986,6.2005,6.1974,6.2156,6.21,6.2122,6.2191,6.2373,6.2384,6.2394,6.2466,6.2487,6.2505,0,0,0,0,0,0,6.1712,6.176,6.1743,6.1871,6.1916,6.196,6.2025,6.2004,6.2063,6.2053,6.2046,6.2058,6.2169,6.2191,6.2129,6.2322,6.2257,6.2272,6.2304,6.2325,6.2341,6.2332,6.2064,0,0,0,0,0,6.1742,6.1816,6.1853,6.1962,6.1986,6.2002,6.2043,6.2037,6.2083,6.2102,6.2128,6.2172,6.2239,6.2283,6.2346,6.2476,6.2485,6.2535,6.2551,6.2564,6.2577,6.2644,6.2666,6.2433,6.2433,6.2433,0,0,6.1804,6.1839,6.1886,6.1977,6.2011,6.2085,6.2018,6.21,6.2155,6.2113,6.2217,6.2237,6.2286,6.2405,6.2459,6.2426,6.2643,6.2577,6.2587,6.2593,6.2657,6.2679,6.2699,6.244,6.2439,6.2437,0,0,6.1955,6.199,6.2084,6.212,6.2173,6.2183,6.2205,6.2252,6.2264,6.2368,6.2338,6.2401,6.2517,6.2553,6.2586,6.2748,6.2721,6.2769,6.2853,6.2919,6.2937,6.2954,6.301,6.303,6.2782,6.2782,6.2782,0,6.2025,6.2138,6.2135,6.2219,6.2258,6.2226,6.2319,6.2354,6.2424,6.2451,6.2415,6.2558,6.2589,6.2714,6.2754,6.2783,6.2806,6.2763,6.2935,6.2952,6.2967,6.302,6.3041,6.2787,6.2787,6.2786,6.2786,0,6.222,6.2298,6.2367,6.2437,6.2485,6.2573,6.2582,6.263,6.262,6.2632,6.2736,6.2772,6.2841,6.287,6.2861,6.2994,6.2972,6.2936,6.287,6.2994,6.3044,6.3064,6.2795,6.2793,6.2791,6.279,0,0,6.2416,6.2483,6.2508,6.2539,6.2594,6.2654,6.2739,6.2808,6.2848,6.2897,6.2968,6.3066,6.3032,6.3069,6.3064,6.3122,6.3246,6.3078,6.3079,6.3106,6.3391,6.3417,6.3441,6.3228,6.3232,6.3235,6.3387,0,6.257,6.2722,6.2721,6.286,6.2931,6.29,6.2974,6.3015,6.3029,6.3089,6.3103,6.3172,6.3124,6.3146,6.3202,6.3219,6.3302,6.3208,6.3291,6.3294,6.3279,6.3468,6.3496,6.3637,6.3406,6.341,6.3412,0,6.2769,6.2826,6.2973,6.3016,6.3046,6.3113,6.3174,6.3233,6.3278,6.3283,6.3325,6.331,6.3394,6.3326,6.3441,6.3377,6.3411,6.3424,6.3429,6.3436,6.336,6.3478,6.3682,6.3703,6.3443,6.344,6.3438,0,6.2895,6.3008,6.311,6.3137,6.3191,6.3239,6.3263,6.3303,6.3344,6.3397,6.3423,6.3485,6.3518,6.3566,6.3566,6.3517,6.3682,6.3614,6.3687,6.3687,6.3722,6.3719,6.3933,6.3746,6.3746,6.3746,6.3745,0,6.3066,6.3157,6.3167,6.323,6.333,6.3327,6.3425,6.3444,6.348,6.3544,6.3521,6.3581,6.3579,6.364,6.3641,6.3734,6.375,6.3755,6.3754,6.3757,6.3756,6.3778,6.3767,6.3751,6.375,6.3749,6.3748,0,6.3224,6.3235,6.3344,6.3386,6.3398,6.3469,6.3504,6.3562,6.3573,6.3654,6.3673,6.369,6.376,6.3766,6.3846,6.3847,6.396,6.3949,6.3945,6.3943,6.4014,6.4006,6.4248,6.4278,6.4073,6.4075,6.4077,0,6.3332,6.3401,6.345,6.3491,6.3519,6.3586,6.3627,6.3626,6.367,6.3725,6.3776,6.3843,6.3898,6.401,6.4028,6.4089,6.4078,6.4158,6.4087,6.4087,6.4077,6.4072,6.4078,6.4172,6.4174,6.4176,6.4178,0,6.3521,6.3522,6.3584,6.3647,6.3697,6.3746,6.3791,6.3826,6.383,6.388,6.3952,6.3994,6.4076,6.4142,6.4202,6.4224,6.4201,6.42,6.422,6.4222,6.4217,6.4219,6.3981,6.4194,6.4193,6.4191,6.4191,6.419,6.3656,6.3715,6.3758,6.3826,6.386,6.3903,6.396,6.3978,6.4038,6.4106,6.4101,6.4179,6.4219,6.4297,6.4324,6.4384,6.4356,6.4385,6.4392,6.4399,6.4405,6.4208,6.4395,6.4394,6.4394,6.4393,6.4393,0,6.3842,6.3868,6.3931,6.3996,6.4049,6.4024,6.4073,6.4118,6.4188,6.4228,6.4282,6.4363,6.4427,6.445,6.4511,6.4555,6.4545,6.4571,6.4567,6.4572,6.4427,6.4404,6.4577,6.4577,6.4577,6.4577,6.4577,6.4577,6.3945,6.4043,6.405,6.4163,6.4188,6.4266,6.4295,6.4334,6.4366,6.4458,6.4511,6.4526,6.4559,6.4622,6.4679,6.4684,6.4707,6.4736,6.4737,6.4601,6.4582,6.4565,6.4542,6.4742,6.4742,6.4876,6.4877,6.4878]}]]